Location: ?astrovice
(49.6513°N, 14.9287°E)
Time: 16:49:52
(UTC+00:00)

STARLINK-29 - Pass Details

Date: 09 April 2020
Orbit: 387 x 401 km, 53.0° (Epoch: 03 June)

Event Time Altitude Azimuth Distance (km) Brightness Sun altitude
Rises 20:01:05 0° 258° (WSW) 2,291 7.3 -20.3°
Reaches altitude 10° 20:03:09 10° 262° (W) 1,439 6.3 -20.5°
Maximum altitude 20:06:21 62° 344° (NNW) 453 3.3 -20.9°
Enters shadow 20:06:24 62° 349° (N) 453 3.3 -20.9°
